Date String (YYYY-MM-DD hh:mm:ss) UTC,Instrument flags,Ambient pressure (hPa),Sample flow (lpm),Bypass flow (lpm),Sample temperature (°C),Ambient temperature (°C),ASC tube jacket temperature (°C),LED temperature (°C),Box temperature (°C),Sample RH (%),Span deviation,Mass concentration (μg/m³),Mass concentration (μg/m³),Mass concentration (μg/m³)
DateTimeUTC,F1_M11,P_M11,Q1_M11,Q2_M11,T1_M11,T2_M11,T3_M11,T4_M11,T5_M11,U1_M11,ZSPAN_M11,X0_M11,X2_M11,X1_M11
2023-03-09 07:00:00,,0822.4,5.01,0.00,22.3,20.4,00.0,31.1,24.0,17.4,-001.1,0018.29,0011.94,0011.51
2023-03-09 07:01:00,,0822.5,5.00,0.00,22.3,20.3,00.0,31.1,23.9,17.4,-001.2,0018.89,0012.02,0011.60
2023-03-09 07:02:00,,0822.6,5.00,0.00,22.2,20.3,00.0,31.1,23.9,17.4,-001.2,0018.99,0012.06,0011.63
2023-03-09 07:03:00,,0822.6,5.01,0.00,22.2,20.2,00.0,31.0,23.9,17.4,-001.2,0018.97,0012.06,0011.64
2023-03-09 07:04:00,,0822.6,5.01,0.00,22.2,20.7,00.0,31.0,24.0,17.5,-001.2,0019.25,0012.08,0011.65
2023-03-09 07:05:00,,0822.6,4.99,0.00,22.3,21.9,00.0,31.0,24.2,17.4,-001.2,0019.47,0012.09,0011.66
2023-03-09 07:06:00,,0822.6,4.99,0.00,22.4,22.9,00.0,31.0,24.5,17.3,-001.1,0019.57,0012.05,0011.63
2023-03-09 07:07:00,,0822.6,4.99,0.00,22.5,22.8,00.0,31.1,24.5,17.2,-001.1,0019.46,0012.01,0011.60
2023-03-09 07:08:00,,0822.6,5.01,0.00,22.5,22.3,00.0,31.1,24.4,17.2,-001.1,0019.39,0011.99,0011.57
2023-03-09 07:09:00,,0822.6,4.99,0.00,22.5,21.9,00.0,31.1,24.3,17.2,-001.0,0019.33,0011.96,0011.54
2023-03-09 07:10:00,,0822.5,5.01,0.00,22.5,21.6,00.0,31.1,24.3,17.2,-000.9,0019.20,0011.87,0011.46
2023-03-09 07:11:00,,0822.4,4.99,0.00,22.5,21.3,00.0,31.1,24.2,17.2,-000.9,0019.07,0011.78,0011.37
2023-03-09 07:12:00,,0822.4,5.00,0.00,22.5,21.1,00.0,31.1,24.2,17.2,-000.9,0018.71,0011.74,0011.33
2023-03-09 07:13:00,,0822.4,4.99,0.00,22.4,20.9,00.0,31.1,24.1,17.2,-000.8,0018.31,0011.66,0011.27
2023-03-09 07:14:00,,0822.4,5.00,0.00,22.4,20.8,00.0,31.1,24.1,17.2,-000.8,0018.16,0011.59,0011.21
2023-03-09 07:15:00,,0822.5,5.00,0.00,22.4,20.7,00.0,31.1,24.1,17.3,-000.8,0017.95,0011.54,0011.17
2023-03-09 07:16:00,,0822.6,5.01,0.00,22.4,20.6,00.0,31.1,24.1,17.3,-000.8,0017.55,0011.50,0011.13
2023-03-09 07:17:00,,0822.6,4.99,0.00,22.4,20.5,00.0,31.1,24.0,17.3,-000.7,0017.39,0011.49,0011.10
2023-03-09 07:18:00,,0822.6,4.99,0.00,22.3,20.4,00.0,31.1,24.0,17.4,-000.8,0017.25,0011.47,0011.07
2023-03-09 07:19:00,,0822.6,5.00,0.00,22.3,20.3,00.0,31.1,23.9,18.2,-000.9,0017.21,0011.42,0011.03
2023-03-09 07:20:00,,0822.6,5.00,0.00,22.3,20.3,00.0,31.1,23.9,18.1,-001.0,0017.06,0011.35,0010.98
2023-03-09 07:21:00,,0822.6,5.01,0.00,22.2,20.3,00.0,31.0,23.9,17.7,-000.8,0016.95,0011.30,0010.93
2023-03-09 07:22:00,,0822.4,5.00,0.00,22.2,20.2,00.0,31.0,23.8,17.6,-000.8,0016.93,0011.29,0010.91
2023-03-09 07:23:00,,0822.4,5.01,0.00,22.2,20.2,00.0,31.0,23.8,17.6,-000.8,0016.79,0011.21,0010.84
2023-03-09 07:24:00,,0822.4,5.00,0.00,22.2,20.4,00.0,31.0,23.8,17.6,-000.9,0017.19,0011.14,0010.75
2023-03-09 07:25:00,,0822.4,5.01,0.00,22.2,21.5,00.0,31.0,24.1,17.5,-000.9,0017.31,0011.05,0010.66
2023-03-09 07:26:00,,0822.4,4.97,0.00,22.4,22.5,00.0,31.0,24.3,17.4,-000.8,0017.21,0010.96,0010.56
2023-03-09 07:27:00,,0822.4,5.00,0.00,22.4,22.7,00.0,31.0,24.3,17.3,-000.8,0017.05,0010.86,0010.46
2023-03-09 07:28:00,,0822.5,4.98,0.00,22.4,22.3,00.0,31.1,24.3,17.3,-000.9,0016.93,0010.77,0010.37
2023-03-09 07:29:00,,0822.4,4.98,0.00,22.4,21.9,00.0,31.1,24.3,17.3,-000.9,0016.85,0010.70,0010.28
2023-03-09 07:30:00,,0822.4,5.01,0.00,22.4,21.6,00.0,31.1,24.2,17.3,-000.7,0016.80,0010.66,0010.22
2023-03-09 07:31:00,,0822.4,4.98,0.00,22.4,21.3,00.0,31.1,24.2,17.3,-000.7,0016.79,0010.63,0010.16
2023-03-09 07:32:00,,0822.4,5.00,0.00,22.4,21.1,00.0,31.1,24.1,17.3,-000.9,0017.22,0010.55,0010.09
2023-03-09 07:33:00,,0822.4,5.01,0.00,22.4,21.0,00.0,31.1,24.1,17.3,-000.9,0017.36,0010.46,0010.02
2023-03-09 07:34:00,,0822.4,4.99,0.00,22.4,20.9,00.0,31.1,24.1,17.3,-001.0,0017.38,0010.42,0009.97
2023-03-09 07:35:00,,0822.4,5.00,0.00,22.3,20.8,00.0,31.1,24.1,17.3,-000.9,0016.89,0010.40,0009.97
2023-03-09 07:36:00,,0822.4,5.00,0.00,22.3,20.7,00.0,31.1,24.0,17.4,-001.0,0016.67,0010.41,0009.96
2023-03-09 07:37:00,,0822.4,5.00,0.00,22.3,20.6,00.0,31.1,24.0,17.4,-001.1,0016.69,0010.44,0009.97
2023-03-09 07:38:00,,0822.5,4.99,0.00,22.3,20.6,00.0,31.1,24.0,17.4,-001.1,0016.69,0010.45,0009.98
2023-03-09 07:39:00,,0822.4,4.97,0.00,22.3,20.5,00.0,31.0,24.0,17.4,-001.1,0016.68,0010.44,0009.99
2023-03-09 07:40:00,,0822.4,5.02,0.00,22.2,20.5,00.0,31.0,23.9,17.4,-001.2,0016.65,0010.42,0009.99
2023-03-09 07:41:00,,0822.4,4.99,0.00,22.2,20.6,00.0,31.0,24.0,17.4,-001.1,0016.58,0010.39,0009.97
2023-03-09 07:42:00,,0822.4,5.01,0.00,22.3,21.6,00.0,31.0,24.2,17.4,-001.0,0016.55,0010.36,0009.94
2023-03-09 07:43:00,,0822.4,4.97,0.00,22.4,22.7,00.0,31.0,24.4,17.3,-001.0,0016.07,0010.34,0009.91
2023-03-09 07:44:00,,0822.4,5.04,0.00,22.5,23.0,00.0,31.1,24.5,17.2,-001.1,0015.76,0010.34,0009.89
2023-03-09 07:45:00,,0822.4,4.99,0.00,22.6,22.5,00.0,31.1,24.5,17.2,-001.0,0016.14,0010.31,0009.87
2023-03-09 07:46:00,,0822.4,4.99,0.00,22.5,22.1,00.0,31.1,24.3,17.2,-001.1,0016.23,0010.33,0009.86
2023-03-09 07:47:00,,0822.4,5.00,0.00,22.5,21.7,00.0,31.1,24.3,17.2,-001.0,0016.22,0010.31,0009.84
2023-03-09 07:48:00,,0822.4,5.00,0.00,22.5,21.5,00.0,31.1,24.3,17.2,-001.1,0016.21,0010.28,0009.82
2023-03-09 07:49:00,,0822.4,5.00,0.00,22.5,21.2,00.0,31.1,24.2,17.2,-001.1,0016.21,0010.26,0009.80
2023-03-09 07:50:00,,0822.4,5.00,0.00,22.5,21.0,00.0,31.2,24.1,17.2,-000.9,0016.18,0010.24,0009.79
2023-03-09 07:51:00,,0822.4,4.98,0.00,22.4,20.9,00.0,31.2,24.1,17.2,-000.9,0016.18,0010.24,0009.79
2023-03-09 07:52:00,,0822.4,4.99,0.00,22.4,20.8,00.0,31.1,24.1,17.2,-001.0,0016.17,0010.23,0009.80
2023-03-09 07:53:00,,0822.5,5.01,0.00,22.4,20.7,00.0,31.1,24.0,17.2,-001.0,0016.16,0010.25,0009.82
2023-03-09 07:54:00,,0822.4,5.01,0.00,22.4,20.6,00.0,31.1,24.0,17.2,-000.9,0016.16,0010.29,0009.86
2023-03-09 07:55:00,,0822.5,5.00,0.00,22.3,20.6,00.0,31.1,24.0,17.2,-000.8,0016.09,0010.24,0009.82
2023-03-09 07:56:00,,0822.6,5.01,0.00,22.4,21.3,00.0,31.1,24.1,17.2,-000.7,0015.43,0010.17,0009.77
2023-03-09 07:57:00,,0822.6,4.98,0.00,22.5,22.4,00.0,31.1,24.4,17.1,-000.6,0015.30,0010.12,0009.72
2023-03-09 07:58:00,,0822.6,5.01,0.00,22.6,23.2,00.0,31.1,24.6,17.0,-000.6,0015.22,0010.07,0009.68
2023-03-09 07:59:00,,0822.6,5.00,0.00,22.6,22.8,00.0,31.2,24.6,16.9,-000.5,0015.19,0010.02,0009.62
